ARIANE 5 DEB (SYLDA), 40877

Orbit data source: Space-Track

ARIANE 5 DEB (SYLDA), 40877 is space debris in LEO originally from a launch on Thu, 20 Aug 2015 UTC launched from the French Guiana (FRGUI). Debris objects in space refer to the collection of defunct objects orbiting the Earth. Examples of debris include non-operational satellites, rocket bodies, and fragments generated from explosions, collisions, or faulty payload assembly.

Not visible in the next 10 days
ARIANE 5 DEB (SYLDA) details
Identifier
40877, 2015-039D
Orbit
LEO
Last TLE update3 months ago
Origin
Flag of FRArianespace (FR)
ManufacturerADS/Bremen
MissionSpacecraft
Bus & MotorSYLDA 5, Unknown motor
Mass440 kg wet, 440 kg dry
Launch date (UTC)
2015-08-20 (9 years ago)
Launch vehicleUnknown
Launch site
French Guiana (FRGUI)
Object type
Payload
Rocket body
Debris
Shape & HBRCyl, 5.5 m
Radar Cross Section27.391 m², Large (>1 m²)

Expand to show TLE details & history

TLE from 3 months ago
0 ARIANE 5 DEB (SYLDA)
1 40877U 15039D   24272.99486054  .05832085 -13320-4  50440-2 0  9996
2 40877   4.9356 322.4533 2001567  72.0531 308.6813 11.76852681111249
Epoch: 2024-09-28T23:52Z
Definitive object data (Epoch: 2024-09-28T23:52:35.95Z)
Latitude-0.00001°
Longitude-43.94023°
Altitude1,001.039 km
Speed7.697 km/s
True Right ascension21h 29m 48s
True Declination0° 00' 00"
Sunlit
Object was in full shadow at TLE epoch
Visualization observer readout
Observer readout values are unavailable because the object's trajectory could not be propagated. This is usually caused when the trajectory data is faulty or the object's orbit has decayed.
Visualization observer readout
Observer readout values are unavailable because the object's trajectory could not be propagated. This is usually caused when the trajectory data is faulty or the object's orbit has decayed.
Orbital elements
Apogee altitude3,427.153 km
Perigee altitude156.589 km
Semi-major axis8,170.008 km
Eccentricity0.2001567
Inclination4.9356°
RAAN322.4533°
Arg. of periapsis72.0531°
True anomaly287.95673°
Mean anomaly308.6813°
Eccentric anomaly298.6138°
Mean motion2.93907 °/min
BSTAR0.005044
Orbital period122.49 mins
Loading maneuver chart data...
Loading historical data...
Loading historical data...
Loading historical data...
Loading historical data...
Loading historical data...
Loading historical data...
Loading historical data...
Other satellites on launch #39 in the year 2015 (2015-08-20 UTC)

ARIANE 5 DEB (SYLDA) Visibility forecast

Observer location: undefined°, undefined

ARIANE 5 DEB (SYLDA) is not visible in the next 10 days
Span
Click to sort rows by Start time (UTC) header in descending order
Start Az.
Max El. time (UTC)
Max El. Az.
Max El.
End time (UTC)
End Az.
|